This demonstration page uses our WeatherBlox Daily Observations layout. Learn more.

Left ArrowRight Arrow

31.31129, -92.44514

Hourly Observations for December 17, 2019

Temp ( °F °C ) Dew Point ( °F °C ) Humidity (%) Winds ( mph kmh ) Pressure ( in mb ) Visibility ( mi km ) Precip ( " mm )
12:25 am 00:25 Cloudy with Light Rain 45 7.2 43 6.1 93 93 NW 16 26 30.06 1018 5 8 0.00 0.00
12:53 am 00:53 Cloudy 44 6.7 42 5.6 93 93 NW 14 22 30.06 1018 7 11 0.00 0.00
1:53 am 01:53 Cloudy 43 6.1 40 4.4 89 89 NW 16 26 30.08 1019 9 14 0.00 0.00
2:12 am 02:12 Cloudy 43 6.1 40 4.4 89 89 NW 14 22 30.08 1019 10 16 0.00 0.00
2:53 am 02:53 Cloudy 43 6.1 39 3.9 86 86 NW 18 30 30.10 1019 10 16 0.00 0.00
3:53 am 03:53 Cloudy 41 5 39 3.9 93 93 NNW 14 22 30.12 1020 10 16 0.00 0.00
4:53 am 04:53 Cloudy 40 4.4 37 2.8 89 89 NNW 14 22 30.13 1020 10 16 0.00 0.00
5:53 am 05:53 Cloudy 40 4.4 36 2.2 86 86 NNW 15 24 30.15 1021 10 16 0.00 0.00
6:33 am 06:33 Cloudy 39 3.9 34 1.1 82 82 N 14 22 30.17 1022 10 16 0.00 0.00
6:53 am 06:53 Cloudy 39 3.9 33 0.6 79 79 NNW 16 26 30.19 1022 10 16 0.00 0.00
7:40 am 07:40 Cloudy 38 3.3 34 1.1 86 86 NNW 14 22 30.19 1022 10 16 0.00 0.00
7:53 am 07:53 Cloudy 38 3.3 34 1.1 86 86 NNW 14 22 30.21 1023 9 14 0.00 0.00
8:53 am 08:53 Cloudy 38 3.3 33 0.6 83 83 N 22 35 30.24 1024 10 16 0.00 0.00
9:05 am 09:05 Cloudy 38 3.3 33 0.6 83 83 NNW 13 20 30.23 1024 10 16 0.00 0.00
9:53 am 09:53 Cloudy 39 3.9 33 0.6 79 79 NNW 13 20 30.27 1025 10 16 0.00 0.00
10:53 am 10:53 Cloudy 39 3.9 33 0.6 79 79 NNW 17 28 30.27 1025 10 16 0.00 0.00
11:53 am 11:53 Cloudy 40 4.4 33 0.6 77 77 NNW 16 26 30.25 1024 10 16 0.00 0.00
12:53 pm 12:53 Cloudy 40 4.4 33 0.6 77 77 NNW 15 24 30.25 1024 10 16 0.00 0.00
1:53 pm 13:53 Cloudy 41 5 33 0.6 73 73 NNW 14 22 30.26 1025 10 16 0.00 0.00
2:53 pm 14:53 Cloudy 41 5 32 0 70 70 NNW 14 22 30.27 1025 10 16 0.00 0.00
3:40 pm 15:40 Partly Cloudy 43 6.1 33 0.6 68 68 NW 17 28 30.26 1025 10 16 0.00 0.00
3:53 pm 15:53 Partly Cloudy 43 6.1 34 1.1 71 71 NW 17 28 30.27 1025 10 16 0.00 0.00
4:53 pm 16:53 Partly Cloudy 43 6.1 34 1.1 71 71 NW 17 28 30.30 1026 10 16 0.00 0.00
6:49 pm 18:49 Mostly Clear N/A N/A N/A undefined N/A N/A N/A 0.00 0.00
6:53 pm 18:53 Mostly Clear N/A N/A N/A undefined N/A N/A N/A 0.00 0.00
7:53 pm 19:53 Mostly Clear N/A N/A N/A undefined N/A N/A N/A 0.00 0.00
8:53 pm 20:53 Clear N/A N/A N/A NW 6 9 N/A 10 16 0.00 0.00
9:53 pm 21:53 Clear 44 6.7 33 0.6 65 65 NW 6 9 30.36 1028 10 16 0.00 0.00
10:53 pm 22:53 Clear 43 6.1 33 0.6 68 68 NW 6 9 30.36 1028 10 16 0.00 0.00
11:49 pm 23:49 Mostly Clear with Mist and Fog 41 5 34 1 76 76 Calm 30.35 1028 5 8 0.00 0.00
11:53 pm 23:53 Mostly Clear with Mist and Fog 38 3.3 26 -3.3 62 62 Calm 30.36 1028 5 8 0.00 0.00

Powered by AerisWeather